DW7955 Weather Reports


time (UTC)temp
F
wind
direction
speed
knots
gust
knots
rain 1hr
in
rain 24hr
in
rain mn
in
humidity
%
barometer
mb
20260906104512 68 347 1.7 6.1 0.00 0.00 0.00 64 1004.7
20260906103011 68 319 2.6 5.2 0.00 0.00 0.00 65 1004.6
20260906101511 67 334 2.6 5.2 0.00 0.00 0.00 65 1004.9
20260906100010 67 317 2.6 5.2 0.00 0.00 0.00 66 1004.8
20260906094510 67 295 3.5 5.2 0.00 0.00 0.00 65 1004.8
20260906093012 67 340 3.5 6.1 0.00 0.00 0.00 65 1004.6
20260906091506 67 302 1.7 6.1 0.00 0.00 0.00 64 1004.5
20260906090004 68 351 2.6 5.2 0.00 0.00 0.00 63 1004.4
20260906084503 68 19 3.5 7.0 0.00 0.00 0.00 63 1004.4
20260906083101 68 16 4.3 8.7 0.00 0.00 0.00 62 1004.4
20260906081557 69 23 7.0 10.4 0.00 0.00 0.00 60 1004.5
20260906080059 70 31 5.2 9.6 0.00 0.00 0.00 59 1004.3
20260906074558 70 32 5.2 9.6 0.00 0.00 0.00 58 1003.9
20260906073050 70 30 5.2 9.6 0.00 0.00 0.00 57 1003.6
20260906071549 71 31 7.0 10.4 0.00 0.00 0.00 56 1003.5
20260906070046 71 43 6.1 9.6 0.00 0.00 0.00 54 1003.5
20260906064544 71 28 4.3 7.8 0.00 0.00 0.00 51 1003.4
20260906063040 72 45 5.2 8.7 0.00 0.00 0.00 49 1003.3
20260906061540 74 25 4.3 7.0 0.00 0.00 0.00 46 1003.6
20260906060036 76 30 0.0 2.6 0.00 0.00 0.00 45 1003.6
20260906054531 77 116 1.7 4.3 0.00 0.00 0.00 44 1003.8
20260906053031 77 129 1.7 6.1 0.00 0.00 0.00 43 1003.9
20260906051530 79 146 3.5 8.7 0.00 0.00 0.00 41 1004.0
20260906050030 80 124 7.0 13.0 0.00 0.00 0.00 38 1004.0
20260906044533 79 78 4.3 8.7 0.00 0.00 0.00 38 1004.0
20260906043028 79 103 0.9 2.6 0.00 0.00 0.00 36 1003.7
20260906041538 80 151 0.9 3.5 0.00 0.00 0.00 35 1003.7
20260906040026 80 97 0.9 5.2 0.00 0.00 0.00 35 1003.7
20260906034530 80 132 1.7 8.7 0.00 0.00 0.00 35 1003.7
20260906033028 80 89 2.6 8.7 0.00 0.00 0.00 36 1003.7
20260906031524 78 33 0.9 3.5 0.00 0.00 0.00 37 1003.2
20260906030024 79 32 0.0 1.7 0.00 0.00 0.00 37 1002.8
20260906024523 81 155 0.0 0.0 0.00 0.00 0.00 36 1002.4
20260906023022 83 155 0.0 0.0 0.00 0.00 0.00 34 1002.2
20260906021523 84 155 0.0 3.5 0.00 0.00 0.00 32 1002.0
20260906020022 84 159 1.7 4.3 0.00 0.00 0.00 31 1001.9
20260906014525 84 132 0.9 2.6 0.00 0.00 0.00 30 1001.6
20260906013021 85 151 0.9 2.6 0.00 0.00 0.00 29 1001.4
20260906011521 88 151 0.0 1.7 0.00 0.00 0.00 26 1001.4
20260906010020 89 173 0.9 3.5 0.00 0.00 0.00 24 1001.5
20260906004519 91 175 1.7 2.6 0.00 0.00 0.00 23 1001.5
20260906003020 91 143 1.7 4.3 0.00 0.00 0.00 23 1001.3
20260906001520 92 181 1.7 6.1 0.00 0.00 0.00 23 1001.3
20260906000019 91 212 2.6 7.0 0.00 0.00 0.00 23 1001.5
20260905234518 89 199 1.7 5.2 0.00 0.00 0.00 27 1001.7
20260905233017 89 205 6.1 9.6 0.00 0.00 0.00 27 1001.6
20260905231518 92 190 3.5 8.7 0.00 0.00 0.00 21 1001.5
20260905230017 92 139 0.9 6.1 0.00 0.00 0.00 21 1001.5
20260905224520 92 128 4.3 10.4 0.00 0.00 0.00 21 1001.4
20260905223016 92 135 2.6 6.1 0.00 0.00 0.00 21 1001.3
20260905221529 93 220 0.9 3.5 0.00 0.00 0.00 20 1001.4
20260905220014 93 159 1.7 6.1 0.00 0.00 0.00 20 1001.4
20260905214513 93 200 3.5 7.0 0.00 0.00 0.00 20 1001.5
20260905213012 93 202 4.3 8.7 0.00 0.00 0.00 20 1001.6
20260905211512 94 185 3.5 7.8 0.00 0.00 0.00 20 1001.6
20260905210010 93 33 2.6 8.7 0.00 0.00 0.00 20 1001.6
20260905204508 93 38 1.7 10.4 0.00 0.00 0.00 20 1002.0
20260905203007 94 184 4.3 11.3 0.00 0.00 0.00 19 1002.4
20260905201506 93 35 2.6 11.3 0.00 0.00 0.00 20 1002.6
20260905200004 93 197 2.6 10.4 0.00 0.00 0.00 20 1002.8
20260905194502 93 56 3.5 9.6 0.00 0.00 0.00 21 1002.8
20260905193003 91 41 1.7 7.0 0.00 0.00 0.00 22 1003.0
20260905191605 91 27 4.3 9.6 0.00 0.00 0.00 21 1003.2
20260905190122 93 22 4.3 9.6 0.00 0.00 0.00 21 1003.2
20260905184619 92 308 3.5 8.7 0.00 0.00 0.00 20 1003.4
20260905183057 92 342 6.1 12.2 0.00 0.00 0.00 21 1003.5
20260905181553 92 7 3.5 9.6 0.00 0.00 0.00 21 1003.6
20260905180052 91 45 4.3 7.8 0.00 0.00 0.00 19 1003.6
20260905174556 91 230 3.5 10.4 0.00 0.00 0.00 20 1003.8
20260905173048 89 323 4.3 7.8 0.00 0.00 0.00 22 1004.0
20260905171545 88 319 3.5 8.7 0.00 0.00 0.00 24 1004.1
20260905170040 85 318 0.9 6.1 0.00 0.00 0.00 30 1004.2
20260905164536 83 252 2.6 4.3 0.00 0.00 0.00 33 1004.6
20260905163032 79 82 1.7 6.1 0.00 0.00 0.00 38 1004.9
20260905161528 77 186 0.0 2.6 0.00 0.00 0.00 42 1004.9
20260905160023 75 176 3.5 6.1 0.00 0.00 0.00 43 1004.9
20260905154520 74 250 4.3 6.1 0.00 0.00 0.00 42 1005.0
20260905153018 73 222 3.5 5.2 0.00 0.00 0.00 45 1004.8
20260905151517 71 210 0.9 4.3 0.00 0.00 0.00 46 1004.9
20260905150016 71 217 1.7 4.3 0.00 0.00 0.00 46 1005.0
20260905144515 70 237 1.7 4.3 0.00 0.00 0.00 49 1005.0
20260905143021 70 311 1.7 3.5 0.00 0.00 0.00 55 1005.1
20260905141514 69 267 0.9 2.6 0.00 0.00 0.00 56 1005.2
20260905140013 67 351 0.0 2.6 0.00 0.00 0.00 57 1005.4
20260905134509 65 7 0.0 1.7 0.00 0.00 0.00 60 1005.3
20260905133010 64 1 0.9 3.5 0.00 0.00 0.00 60 1005.2
20260905131508 64 1 0.0 3.5 0.00 0.00 0.00 63 1005.1
20260905130004 64 351 3.5 5.2 0.00 0.00 0.00 69 1004.8
20260905124502 63 325 0.0 0.0 0.00 0.00 0.00 74 1004.6
20260905123109 64 325 0.0 0.0 0.00 0.00 0.00 72 1004.3
20260905121556 65 325 0.0 0.0 0.00 0.00 0.00 71 1004.2
20260905120053 66 325 0.0 0.9 0.00 0.00 0.00 71 1004.3
20260905114553 66 325 0.0 3.5 0.00 0.00 0.00 71 1004.3
20260905113100 66 321 1.7 3.5 0.00 0.00 0.00 70 1004.3
20260905111557 66 1 1.7 4.3 0.00 0.00 0.00 71 1004.3
20260905110050 66 324 0.0 0.0 0.00 0.00 0.00 70 1004.3